BEIDOU-2 G6

Last updated on Sun Apr 12 2026 00:02:52 GMT+0000 (Coordinated Universal Time)

1 38953U 12059A 26101.53733080 -.00000170 00000+0 00000+0 0 9991 2 38953 4.2521 74.2162 0011034 314.1731 88.8463 1.00270841 49244
UTC large
Height (km)
Speed (km/s)
/
Latitude / Longitude
Inclination (degrees)
Orbital Period (minutes)
Azimuth
Elevation
Range (km)
Doppler Factor

Next 0 passes for location: London (51.5072 / 0.1276)

Sorry there are no passes over London.
BEIDOU-2 G6